Regional Weather Roundup
Issued by NWS Pendleton, OR

Home | Current Version | Previous Version | Text Only | Print | Product List | Glossary On
Versions: 1 2 3 4 5 6 7 8 9 10 11 12 13 14 15 16 17 18 19 20 21 22 23 24 25 26 27 28 29 30 31 32 33 34 35 36 37 38 39 40 41 42 43 44 45 46 47 48 49 50
000
ASUS46 KPDT 281225
RWRPDT
PENDLETON REGIONAL WEATHER ROUNDUP
NATIONAL WEATHER SERVICE PENDLETON OREGON
500 AM PDT MON JUL 28 2014

NOTE: FAIR INDICATES FEW OR NO CLOUDS BELOW 12,000 FEET WITH NO
SIGNIFICANT WEATHER AND/OR OBSTRUCTIONS TO VISIBILITY.

# INDICATES UNOFFICIAL STATION AND DATA

WAZ520-281310-
EAST SLOPES OF WASHINGTON CASCADES

CITY            SKY/WX      TMP DP  RH  WIND    PRES   REMARKS
#BUMPING DAM    N/A         54  N/A N/A N1      N/A
#CLE ELUM HS    N/A         55  51  86  CALM    30.05R
#CLE ELUM LAKE  N/A         62  50  65  CALM    29.96S
#CLIFFDEL 2NW   N/A         55  50  83  CALM    N/A
#GLENWOOD       N/A         50  48  93  CALM    30.00S
#MANASTASH CYN  N/A         60  44  55  CALM    30.10R
#NELSON         N/A         56  52  86  CALM    30.02R
#NELSON 3SW     N/A         57  50  77  CALM    30.19R
#RONALD 2NW     N/A         60  50  69  NE1     30.00S
#TROUT LAKE 1NE N/A         53  49  86  CALM    29.99F
$$

WAZ521-281310-
SIMCOE HIGHLANDS

CITY            SKY/WX      TMP DP  RH  WIND    PRES   REMARKS
#BICKLETON HS   N/A         66  30  26  N5      30.15S
#CENTERVILLE 1SWN/A         53  44  71  CALM    29.96R
#GOLDENDALE 1NE N/A         55  42  61  N3      N/A
#GOLDENDALE 1S  N/A         57  47  69  CALM    30.03S
#GOLDENDALE 5WNWN/A         55  44  66  CALM    29.96S
#GOODNOE HILLS  N/A         68  58  70  NW9     29.97R
#LYLE 6NE       N/A         62  58  87  S1      29.95S
$$

WAZ026-281310-
KITTITAS VALLEY

CITY            SKY/WX      TMP DP  RH  WIND    PRES   REMARKS
ELLENSBURG AP   CLEAR       60  52  75  N5      30.08R
6HR MIN TEMP:   59; 6HR MAX TEMP:   77;

#ELLENSBURG CWU N/A         59  54  83  N1      29.95R
#ELLENSBURG 3NE N/A         56  52  86  NE2     30.08R
#ELLENSBURG 1E  N/A         57  52  83  CALM    N/A
#KITTITAS 3S    N/A         55  53  93  CALM    29.98R
#THORP 6N       N/A         60  51  72  N5      30.00R
$$

WAZ027-281310-
YAKIMA VALLEY

CITY            SKY/WX      TMP DP  RH  WIND    PRES   REMARKS
YAKIMA AIRPORT  CLEAR       67  51  56  W9      30.04R
6HR MIN TEMP:   62; 6HR MAX TEMP:   73;

YAKIMA-VAGABOND CLEAR       67  50  54  E10     30.06R
#COWICHE 1N     N/A         68  51  55  NW6     30.19R
#DONALD 2NE     N/A         74  48  40  CALM    30.33R
#GRANDVIEW      N/A         65  56  73  CALM    29.97F
#MABTON         N/A         63  52  67  CALM    29.99R
#MOXEE 2E       N/A         63  46  54  CALM    29.95S
#NACHES 2SW     N/A         69  54  59  W6      30.06S
#OUTLOOK DOT    N/A         N/A N/A N/A W1      N/A
#SELAH 8E       N/A         61  48  62  E3      N/A
#TERRACE HTS    N/A         67  54  63  CALM    29.93S
#TOPPENISH      N/A         64  55  73  CALM    29.88S
#WAPATO 4NE     N/A         74  48  40  CALM    30.33R
#WEST VALLEY    N/A         62  50  65  CALM    29.97R
#W YAKIMA       N/A         70  54  57  N2      29.97R
#WHITE SWAN 5E  N/A         59  51  75  W1      29.97S
#WILEY CITY 3W  N/A         60  44  55  CALM    30.04R
$$

WAZ028-281310-
LOWER COLUMBIA BASIN...WASHINGTON

CITY            SKY/WX      TMP DP  RH  WIND    PRES   REMARKS
PASCO           CLOUDY      68  57  68  N3      29.96S
6HR MIN TEMP:   68; 6HR MAX TEMP:   81;

PROSSER AWOS    N/A         63  57  81  W2      30.03S
RICHLAND AWOS   CLOUDY      73  54  51  CALM    29.97S
#BASIN CITY 5SW N/A         66  53  63  CALM    29.98S
#BENTON CITY    N/A         72  55  55  W6      29.84F
#CONNELL 5N     N/A         70  42  36  N1      29.94S
#CONNELL 5NW    N/A         67  39  36  CALM    29.91S
#ELTOPIA        N/A         69  50  51  NE2     29.90F
#ELTOPIA 6NW    N/A         73  49  43  N1      28.97R
#KENNEWICK 3S   N/A         75  47  37  CALM    29.92F
#PATERSON       N/A         69  59  70  S1      29.94R
#PROSSER        N/A         72  48  43  CALM    29.95S
#SAGEMOOR 2W    N/A         67  56  68  CALM    29.79F
#TOUCHET 2S     N/A         62  54  75  SE2     29.92F
#WEST PASCO     N/A         71  54  55  CALM    29.93F
$$

WAZ029-281310-
FOOTHILLS OF THE BLUES...WASHINGTON

CITY            SKY/WX      TMP DP  RH  WIND    PRES   REMARKS
WALLA WALLA AP  CLOUDY      74  45  35  E7      30.02R
6HR MIN TEMP:   73; 6HR MAX TEMP:   82;

#COLLEGE PLACE  N/A         72  49  44  E2      29.98R
#DAYTON SCHOOL  N/A         73  41  31  NE2     30.02R
#LOWDEN 2SE     N/A         66  53  63  E5      29.94S
#PLEASANT VIEW 1N/A         74  41  30  SW6     29.98R
#PRESCOTT       N/A         71  49  46  CALM    29.92R
#SUDBURY        N/A         71  N/A N/A CALM    N/A
#WHITMAN COLLEGEN/A         73  48  41  E2      30.00R
#WAITSBURG 8N   N/A         74  31  20  E3      29.88R
#WALLA WALLA 5E N/A         80  47  31  S15     N/A
#WALLA WALLA U  N/A         71  52  51  E1      29.94R
#WHITMAN MISSIONN/A         67  54  63  E5      29.96R
$$

WAZ030-281310-
BLUE MOUNTAINS...WASHINGTON

CITY            SKY/WX      TMP DP  RH  WIND    PRES   REMARKS
$$

ORZ009-041-WAZ024-281310-
COLUMBIA RIVER GORGE

CITY            SKY/WX      TMP DP  RH  WIND    PRES   REMARKS
HOOD RIVER AP   CLEAR       57  54  90  CALM    30.05R
THE DALLES AP   CLEAR       68  59  73  NW6     30.00R
6HR MIN TEMP:   67; 6HR MAX TEMP:   77;

#ARLINGTON AIRPON/A         71  57  61  W13     N/A
#ARLINGTON HS   N/A         70  55  59  W2      29.87R
#CELILO DOT     N/A         70  56  61  S2      N/A
#MOSIER 1S      N/A         62  54  75  CALM    30.09S
#MURDOCK        N/A         70  62  76  W12     30.02R
#RUFUS DOT      N/A         71  62  73  NW7     N/A

$$

ORZ510-281310-
NORTH CENTRAL OREGON

CITY            SKY/WX      TMP DP  RH  WIND    PRES   REMARKS
#CHENOWITH 1W   N/A         65  56  73  NW16    N/A
#COW CYN RST AREN/A         69  41  36  SW2     N/A
#GRASS VALLEY 1SN/A         60  41  49  CALM    30.00R
#KENT DOT       N/A         62  33  34  SW5     N/A
#MAUPIN SCHOOL  N/A         63  47  56  CALM    30.08R
#MORO SCHOOL    N/A         62  51  67  SW1     30.07R
#SHANIKO 5WSW   N/A         68  33  27  CALM    N/A
#SHANIKO 4NW    N/A         71  38  30  N3      30.16R
#TYGH VALLEY 2NEN/A         60  47  62  CALM    29.99R
#WAPANITIA AIRPON/A         60  50  69  CALM    30.00R
#WASCO DOT      N/A         56  49  77  SW2     N/A
#WASCO AIRPORT  N/A         65  48  54  CALM    N/A
#WASCO 5NE      N/A         64  52  65  CALM    29.96R
$$

ORZ511-281310-
CENTRAL OREGON

CITY            SKY/WX      TMP DP  RH  WIND    PRES   REMARKS
BEND AIRPORT    CLEAR       59  43  55  SW3     30.18S
REDMOND AIRPORT CLEAR       52  39  61  E3      30.15R
6HR MIN TEMP:   50; 6HR MAX TEMP:   71;

#BEND 6E        N/A         58  40  51  CALM    29.93F
#BEND 1SW       N/A         53  40  61  SW1     N/A
#BEND-AWBREY    N/A         65  44  46  CALM    29.98F
#BEND-KIM LN    N/A         59  47  64  S7      30.14F
#CROOKED RVR RANN/A         58  45  62  N13     29.98S
#CULVER         N/A         59  46  62  CALM    30.09S
#LAKE BILLY CHINN/A         63  23  21  SW1     30.16S
#POWELL BUTTE 3EN/A         54  38  55  SE2     N/A
#POWELL BUTTE   N/A         59  40  49  S2      29.79S
#PRINEVILLE 3N  N/A         55  46  72  CALM    29.97R


ORZ509-281310-
EAST SLOPES OF OREGON CASCADES

CITY            SKY/WX      TMP DP  RH  WIND    PRES   REMARKS
#BLUE BOX PASS  N/A         66  11  11  CALM    N/A
#BLACK BUTTE RNCN/A         52  46  80  CALM    30.01R
#CAMP SHERMAN   N/A         46  42  86  CALM    30.04R
#LA PINE DOT    N/A         43  40  89  CALM    N/A
#LA PINE 4NW    N/A         42  36  79  CALM    30.07S
#LAVA BUTTE DOT N/A         49  39  68  S15     N/A    WCI 43
#SISTERS AIRPOR N/A         51  49  93  CALM    30.14R
#SISTERS ODOT   N/A         50  N/A N/A CALM    N/A
#SISTERS 1NW    N/A         52  44  74  N5      N/A
#SISTERS 3N     N/A         50  41  71  CALM    N/A
#SUNRIVER       N/A         48  43  83  CALM    29.92R
#SUNRIVER AP    N/A         45  41  86  CALM    29.99R
#SUTTLE LK DOT  N/A         49  45  86  W2      N/A
#TUMALO 3W      N/A         67  42  40  SW5     29.87S
#WANOGA BUTTE D N/A         64  37  37  CALM    N/A

$$

ORZ044-281310-
LOWER COLUMBIA BASIN...OREGON

CITY            SKY/WX      TMP DP  RH  WIND    PRES   REMARKS
HERMISTON       MOCLDY      68  46  45  SW3     29.98R
6HR MIN TEMP:   67; 6HR MAX TEMP:   84;

#BOARDMAN SCHOOLN/A         78  61  56  CALM    29.97R
#BOARDMAN 3W    N/A         65  55  70  W3      29.68S
#BOARDMAN 8SW   N/A         69  52  55  SW3     29.95R
#IONE SCHOOL    N/A         67  43  42  CALM    30.01R
#IRRIGON 4NW    N/A         68  61  78  N2      N/A
#UMATILLA SCHOOLN/A         67  58  73  S2      30.03F
#UMATILLA       N/A         69  48  47  CALM    29.95R
$$

ORZ507-281310-
NORTHERN FOOTHILLS OF THE BLUES

CITY            SKY/WX      TMP DP  RH  WIND    PRES   REMARKS
PENDLETON AIRPT MOCLDY      68  42  39  SE7     30.02S
6HR MIN TEMP:   68; 6HR MAX TEMP:   80;

#ADAMS 3WNW     N/A         67  46  47  CALM    29.93F
#ATHENA         N/A         71  45  39  CALM    29.96F
#HELIX SCHOOL   N/A         67  44  43  CALM    29.93F
#HELIX 3N       N/A         70  39  32  CALM    30.00F
#HOLDMAN 5SE    N/A         67  44  43  SE3     30.01F
#HOLDMAN 6E     N/A         67  46  47  CALM    29.76F
#M-F FERNDALE   N/A         67  50  54  CALM    29.99R
#M-F GROVE ELEM N/A         74  41  30  CALM    29.99R
#M-FREEWATER 5SEN/A         72  49  44  CALM    30.01R
#PDT AQUATIC CTRN/A         70  46  42  CALM    29.95S
#PENDLETON DNTN N/A         69  44  40  CALM    29.98S
#PENDLETON 5NE  N/A         67  48  50  CALM    29.98S
#PDT SUNRIDGE   N/A         67  47  49  CALM    30.02F
#PENDLETON 7NW  N/A         67  44  43  CALM    28.82F
#PILOT ROCK     N/A         70  41  35  CALM    30.05F
#TUTUILLA       N/A         70  48  46  S2      29.90F
#UMAPINE 2E     N/A         66  52  61  E3      29.95R
#WESTON SCHOOL  N/A         73  40  30  CALM    30.01S

$$

ORZ508-281310-
SOUTHERN FOOTHILLS OF THE BLUES

CITY            SKY/WX      TMP DP  RH  WIND    PRES   REMARKS
#AJAX           N/A         N/A N/A N/A SW1     30.10R
#CONDON SCHOOL  N/A         66  43  43  CALM    30.07R
#CONDON 5W      N/A         72  39  30  N3      30.10F
#HEPPNER EOC    N/A         72  39  30  CALM    29.91R
#HEPPNER 4NE    N/A         68  35  29  E1      29.94S
#LEXINGTON 2SE  N/A         71  43  36  CALM    30.01R
#MIKKALO        N/A         66  39  37  SE1     30.05S
#OLEX 4N        N/A         66  42  42  SW6     30.01R
#RUGGS 5NE      N/A         70  36  29  SW2     30.27S
#RUGGS 2SW      N/A         72  39  30  CALM    29.99R

$$

ORZ502-503-281310-
BLUE MOUNTAINS

CITY            SKY/WX      TMP DP  RH  WIND    PRES   REMARKS
MEACHAM         CLOUDY      56  47  72  CALM    30.17S
6HR MIN TEMP:   55; 6HR MAX TEMP:   65;

#BATTLE MTN DOT N/A         65  44  46  S2      N/A
#HARDMAN 10S    N/A         68  38  33  SW1     30.22S
#HEPPNER 15SE   N/A         62  40  44  CALM    30.10F
#LADD CYN SMT   N/A         69  32  25  W2      N/A
#LADD CREEK ODOTN/A         67  43  42  SW2     N/A
#LONG CREEK HS  N/A         64  43  46  CALM    30.11R
#PIKES PEAK     N/A         73  38  28  SW8     27.99S
#TOLLGATE 9W    N/A         69  40  35  E3      N/A
#TROY SCHOOL    N/A         64  51  63  CALM    29.85R
#UKIAH          N/A         57  46  67  CALM    30.01F
#WESTON 4E      N/A         74  39  28  CALM    29.88S
$$

ORZ505-281310-
JOHN DAY BASIN

CITY            SKY/WX      TMP DP  RH  WIND    PRES   REMARKS
JOHN DAY        MOCLDY      68  41  37  CALM    30.16S
#JOHN DAY KJDY  N/A         66  48  52  CALM    30.08F
#MONUMENT HS    N/A         65  44  46  CALM    29.83R
#MT. VERNON 5SE N/A         68  41  37  CALM    30.13S
#WINLOCK        N/A         69  39  33  CALM    30.18R
$$

ORZ506-281310-
OCHOCO AND JOHN DAY HIGHLANDS

CITY            SKY/WX      TMP DP  RH  WIND    PRES   REMARKS
#BUCK CREEK DOT N/A         67  44  43  S2      N/A
#HORSE RIDGE DO N/A         48  35  60  S1      N/A
#KEYES SMT DOT  N/A         70  36  29  N6      N/A
#PINE MTN OBS   N/A         69  34  27  SE2     N/A
#PRAIRIE CITY   N/A         57  43  59  CALM    30.11R
$$

ORZ049-281310-
GRANDE RONDE VALLEY

CITY            SKY/WX      TMP DP  RH  WIND    PRES   REMARKS
LA GRANDE       CLOUDY      63  39  41  SE5     30.09F
#COVE           N/A         63  49  60  CALM    30.01F
#COVE SCHOOL    N/A         65  47  52  CALM    30.07F
#COVE 6NW       N/A         62  48  60  CALM    29.99S
#ELGIN 3N       N/A         61  46  58  N1      29.83F
#ELGIN 1E       N/A         61  48  62  CALM    N/A
#IMBLER SCHOOL  N/A         75  47  37  CALM    30.05F
#ISLAND CITY 4N N/A         64  52  65  CALM    29.89F
#LADD CYN DOT   N/A         71  41  34  SE7     N/A
#UNION 1S       N/A         65  48  54  CALM    29.86F
$$

ORZ050-281310-
WALLOWA COUNTY

CITY            SKY/WX      TMP DP  RH  WIND    PRES   REMARKS
JOSEPH AIRPORT  PTCLDY      59  43  55  S3      30.22R
#ENTERPRISE AP  N/A         66  35  32  CALM    29.99S
#ENTERPRISE HS  N/A         54  46  74  CALM    30.18R
#IMNAHA 10S     N/A         66  41  40  SW3     30.12R
#JOSEPH 3N      N/A         51  45  80  NE2     30.20R
#JOSEPH 3W      N/A         64  38  38  SW3     30.06R
#LOSTINE        N/A         58  46  64  CALM    29.80R
#MT HOWARD 8000 N/A         61  31  32  N1      30.48R
#PROMISE 1S     N/A         65  43  45  CALM    30.05S
#SHEEP RDG 7000 N/A         65  34  31  CALM    29.93R
#WALLOWA SCHOOL N/A         56  49  77  CALM    30.87S



$$



USA.gov is the U.S. government's official web portal to all federal, state and local government web resources and services.